| time (UTC) | temp F | wind direction | speed MPH | gust MPH | rain 1hr in | rain 24hr in | rain mn in | humidity % | barometer mb |
| 20260510201518 | 69 | 342 | 7.0 | 12.0 | 0.00 | 0.02 | 0.00 | 43 | 1019.9 |
| 20260510200018 | 68 | 300 | 5.0 | 12.0 | 0.00 | 0.02 | 0.00 | 43 | 1020.0 |
| 20260510194524 | 68 | 331 | 5.0 | 9.0 | 0.00 | 0.02 | 0.00 | 42 | 1019.8 |
| 20260510193015 | 68 | 289 | 2.0 | 9.0 | 0.00 | 0.02 | 0.00 | 44 | 1019.8 |
| 20260510191513 | 68 | 330 | 5.0 | 9.0 | 0.00 | 0.02 | 0.00 | 46 | 1019.9 |
| 20260510190014 | 66 | 273 | 3.0 | 11.0 | 0.00 | 0.02 | 0.00 | 43 | 1019.9 |
| 20260510184524 | 68 | 13 | 4.0 | 13.0 | 0.00 | 0.02 | 0.00 | 52 | 1019.7 |
| 20260510183007 | 66 | 330 | 5.0 | 13.0 | 0.00 | 0.02 | 0.00 | 47 | 1019.6 |
| 20260510181507 | 65 | 346 | 6.0 | 11.0 | 0.00 | 0.02 | 0.00 | 44 | 1019.6 |
| 20260510180003 | 65 | 344 | 5.0 | 11.0 | 0.00 | 0.02 | 0.00 | 47 | 1019.7 |
| 20260510174600 | 64 | 47 | 4.0 | 10.0 | 0.00 | 0.02 | 0.00 | 49 | 1019.9 |
| 20260510173056 | 61 | 9 | 2.0 | 6.0 | 0.00 | 0.02 | 0.00 | 58 | 1020.0 |
| 20260510171554 | 60 | 5 | 5.0 | 8.0 | 0.00 | 0.02 | 0.00 | 55 | 1020.1 |
| 20260510170051 | 59 | 351 | 2.0 | 5.0 | 0.00 | 0.02 | 0.00 | 64 | 1020.0 |
| 20260510164552 | 59 | 30 | 1.0 | 5.0 | 0.00 | 0.02 | 0.00 | 61 | 1020.1 |
| 20260510163050 | 58 | 13 | 4.0 | 7.0 | 0.00 | 0.02 | 0.00 | 64 | 1020.0 |
| 20260510161549 | 58 | 341 | 4.0 | 6.0 | 0.00 | 0.02 | 0.00 | 64 | 1020.0 |
| 20260510160124 | 57 | 341 | 2.0 | 6.0 | 0.00 | 0.02 | 0.00 | 66 | 1020.0 |
| 20260510154548 | 57 | 360 | 3.0 | 7.0 | 0.00 | 0.02 | 0.00 | 66 | 1020.1 |
| 20260510153048 | 58 | 342 | 2.0 | 8.0 | 0.00 | 0.02 | 0.00 | 61 | 1020.1 |
| 20260510151547 | 58 | 360 | 3.0 | 7.0 | 0.00 | 0.02 | 0.00 | 62 | 1020.1 |
| 20260510150047 | 57 | 330 | 2.0 | 4.0 | 0.00 | 0.02 | 0.00 | 64 | 1020.0 |
| 20260510144545 | 58 | 9 | 4.0 | 9.0 | 0.00 | 0.02 | 0.00 | 57 | 1019.8 |
| 20260510143045 | 59 | 12 | 4.0 | 8.0 | 0.00 | 0.02 | 0.00 | 56 | 1019.7 |
| 20260510141541 | 58 | 15 | 5.0 | 9.0 | 0.00 | 0.02 | 0.00 | 58 | 1019.5 |
| 20260510140039 | 59 | 42 | 7.0 | 13.0 | 0.00 | 0.02 | 0.00 | 55 | 1019.0 |
| 20260510134536 | 57 | 335 | 6.0 | 12.0 | 0.00 | 0.02 | 0.00 | 58 | 1018.7 |
| 20260510133034 | 58 | 19 | 6.0 | 12.0 | 0.00 | 0.02 | 0.00 | 60 | 1018.5 |
| 20260510131531 | 57 | 34 | 7.0 | 14.0 | 0.00 | 0.02 | 0.00 | 61 | 1018.2 |
| 20260510130028 | 56 | 34 | 5.0 | 9.0 | 0.00 | 0.02 | 0.00 | 63 | 1018.0 |
| 20260510124528 | 55 | 346 | 5.0 | 9.0 | 0.00 | 0.02 | 0.00 | 63 | 1018.2 |
| 20260510123023 | 55 | 9 | 7.0 | 11.0 | 0.00 | 0.02 | 0.00 | 65 | 1018.1 |
| 20260510121519 | 53 | 344 | 5.0 | 10.0 | 0.00 | 0.02 | 0.00 | 67 | 1017.7 |
| 20260510120017 | 53 | 329 | 5.0 | 9.0 | 0.00 | 0.02 | 0.00 | 69 | 1017.4 |
| 20260510114514 | 53 | 342 | 4.0 | 9.0 | 0.00 | 0.02 | 0.00 | 69 | 1017.3 |
| 20260510113011 | 53 | 342 | 3.0 | 7.0 | 0.00 | 0.02 | 0.00 | 70 | 1016.9 |
| 20260510111506 | 53 | 22 | 3.0 | 6.0 | 0.00 | 0.02 | 0.00 | 68 | 1016.4 |
| 20260510110015 | 54 | 342 | 4.0 | 8.0 | 0.00 | 0.02 | 0.00 | 68 | 1016.4 |
| 20260510104502 | 54 | 10 | 4.0 | 10.0 | 0.00 | 0.02 | 0.00 | 67 | 1016.0 |
| 20260510103105 | 55 | 360 | 3.0 | 9.0 | 0.00 | 0.02 | 0.00 | 67 | 1016.1 |
| 20260510101557 | 55 | 360 | 4.0 | 9.0 | 0.00 | 0.02 | 0.00 | 66 | 1015.7 |
| 20260510100055 | 56 | 19 | 5.0 | 8.0 | 0.00 | 0.02 | 0.00 | 67 | 1015.3 |
| 20260510094552 | 56 | 28 | 5.0 | 9.0 | 0.00 | 0.02 | 0.00 | 68 | 1015.2 |
| 20260510093101 | 56 | 329 | 4.0 | 8.0 | 0.00 | 0.02 | 0.00 | 70 | 1014.8 |
| 20260510091545 | 56 | 19 | 4.0 | 7.0 | 0.00 | 0.02 | 0.00 | 73 | 1014.7 |
| 20260510090053 | 56 | 355 | 5.0 | 7.0 | 0.00 | 0.02 | 0.00 | 74 | 1014.7 |
| 20260510084541 | 57 | 16 | 3.0 | 8.0 | 0.00 | 0.02 | 0.00 | 75 | 1014.2 |
| 20260510083039 | 57 | 5 | 4.0 | 9.0 | 0.00 | 0.02 | 0.00 | 78 | 1013.9 |
| 20260510081536 | 56 | 351 | 3.0 | 9.0 | 0.00 | 0.02 | 0.00 | 85 | 1013.9 |
| 20260510074532 | 57 | 301 | 4.0 | 8.0 | 0.00 | 0.02 | 0.00 | 90 | 1013.6 |
| 20260510073029 | 57 | 335 | 1.0 | 4.0 | 0.00 | 0.02 | 0.00 | 91 | 1013.7 |
| 20260510071528 | 57 | 340 | 0.0 | 3.0 | 0.00 | 0.02 | 0.00 | 91 | 1013.3 |
| 20260510070028 | 58 | 355 | 0.0 | 3.0 | 0.00 | 0.02 | 0.00 | 90 | 1013.3 |
| 20260510064528 | 58 | 355 | 0.0 | 2.0 | 0.00 | 0.02 | 0.00 | 91 | 1013.2 |
| 20260510063023 | 58 | 355 | 0.0 | 2.0 | 0.00 | 0.02 | 0.00 | 91 | 1013.0 |
| 20260510061521 | 59 | 25 | 2.0 | 5.0 | 0.00 | 0.02 | 0.00 | 91 | 1013.1 |
| 20260510060018 | 59 | 5 | 0.0 | 2.0 | 0.00 | 0.02 | 0.00 | 91 | 1013.0 |
| 20260510054520 | 60 | 5 | 1.0 | 4.0 | 0.00 | 0.03 | 0.00 | 91 | 1012.9 |
| 20260510053015 | 60 | 15 | 2.0 | 6.0 | 0.00 | 0.03 | 0.00 | 90 | 1012.6 |
| 20260510051513 | 60 | 30 | 3.0 | 5.0 | 0.00 | 0.03 | 0.00 | 91 | 1012.4 |
| 20260510050010 | 60 | 23 | 3.0 | 8.0 | 0.00 | 0.03 | 0.00 | 91 | 1012.3 |
| 20260510044507 | 60 | 348 | 3.0 | 6.0 | 0.00 | 0.03 | 0.03 | 92 | 1011.9 |
| 20260510043008 | 60 | 16 | 2.0 | 5.0 | 0.00 | 0.03 | 0.03 | 92 | 1011.5 |
| 20260510041505 | 60 | 348 | 2.0 | 5.0 | 0.00 | 0.03 | 0.03 | 92 | 1011.5 |
| 20260510040008 | 60 | 19 | 1.0 | 5.0 | 0.00 | 0.03 | 0.03 | 91 | 1011.3 |
| 20260510034504 | 60 | 26 | 1.0 | 3.0 | 0.00 | 0.03 | 0.03 | 92 | 1011.4 |
| 20260510033002 | 60 | 257 | 1.0 | 3.0 | 0.00 | 0.03 | 0.03 | 91 | 1011.5 |
| 20260510031600 | 61 | 345 | 2.0 | 4.0 | 0.00 | 0.03 | 0.03 | 90 | 1011.0 |
| 20260510030057 | 61 | 51 | 1.0 | 6.0 | 0.00 | 0.03 | 0.03 | 90 | 1010.5 |
| 20260510024554 | 61 | 36 | 2.0 | 6.0 | 0.00 | 0.03 | 0.03 | 89 | 1010.3 |
| 20260510023054 | 61 | 13 | 3.0 | 7.0 | 0.02 | 0.03 | 0.03 | 89 | 1010.0 |
| 20260510021552 | 61 | 331 | 2.0 | 7.0 | 0.02 | 0.03 | 0.03 | 88 | 1009.9 |
| 20260510020051 | 62 | 355 | 6.0 | 12.0 | 0.02 | 0.03 | 0.03 | 87 | 1009.6 |
| 20260510014552 | 63 | 319 | 6.0 | 18.0 | 0.02 | 0.20 | 0.03 | 83 | 1009.8 |
| 20260510013048 | 68 | 340 | 8.0 | 18.0 | 0.00 | 0.18 | 0.01 | 73 | 1009.2 |
| 20260510011555 | 73 | 206 | 1.0 | 3.0 | 0.00 | 0.18 | 0.01 | 61 | 1007.3 |
| 20260510010059 | 74 | 179 | 1.0 | 3.0 | 0.00 | 0.18 | 0.01 | 58 | 1007.0 |
| 20260510004547 | 75 | 216 | 2.0 | 6.0 | 0.00 | 0.45 | 0.01 | 57 | 1007.0 |
| 20260510003046 | 76 | 201 | 1.0 | 4.0 | 0.00 | 0.45 | 0.01 | 56 | 1007.0 |
| 20260510001546 | 76 | 215 | 2.0 | 6.0 | 0.00 | 0.45 | 0.01 | 56 | 1007.1 |
| 20260510000045 | 77 | 235 | 2.0 | 5.0 | 0.00 | 0.45 | 0.01 | 55 | 1007.0 |
| 20260509234545 | 77 | 239 | 1.0 | 4.0 | 0.00 | 0.47 | 0.01 | 56 | 1007.1 |
| 20260509233042 | 77 | 258 | 0.0 | 3.0 | 0.00 | 0.47 | 0.01 | 51 | 1007.1 |
| 20260509231542 | 77 | 278 | 1.0 | 5.0 | 0.00 | 0.47 | 0.01 | 52 | 1007.2 |
| 20260509230044 | 78 | 214 | 1.0 | 6.0 | 0.00 | 0.47 | 0.01 | 51 | 1007.2 |
| 20260509224541 | 78 | 217 | 1.0 | 5.0 | 0.00 | 0.60 | 0.01 | 49 | 1007.2 |
| 20260509223040 | 79 | 289 | 1.0 | 4.0 | 0.00 | 0.60 | 0.01 | 48 | 1007.2 |
| 20260509221539 | 79 | 199 | 1.0 | 4.0 | 0.00 | 0.60 | 0.01 | 48 | 1007.1 |
| 20260509220038 | 80 | 246 | 0.0 | 6.0 | 0.00 | 0.60 | 0.01 | 49 | 1007.2 |
| 20260509214542 | 80 | 270 | 2.0 | 8.0 | 0.00 | 0.62 | 0.01 | 44 | 1007.3 |
| 20260509213036 | 81 | 285 | 1.0 | 4.0 | 0.00 | 0.62 | 0.01 | 41 | 1007.4 |
| 20260509211542 | 82 | 238 | 1.0 | 5.0 | 0.00 | 0.62 | 0.01 | 45 | 1007.5 |
| 20260509210032 | 82 | 233 | 2.0 | 7.0 | 0.00 | 0.62 | 0.01 | 44 | 1007.7 |
| 20260509204531 | 82 | 244 | 1.0 | 6.0 | 0.00 | 0.62 | 0.01 | 45 | 1007.8 |
| 20260509203031 | 81 | 277 | 4.0 | 8.0 | 0.00 | 0.62 | 0.01 | 47 | 1007.8 |